#Datum;Uhrzeit;WR;Pac;DaySum;Status;WR;Pac;DaySum;Status;Pdc1;Udc;Temp;WR;Pac;DaySum;Status;Pdc1;Udc;Temp;WR;Pac;DaySum;Status;Pdc1;Udc;Temp;WR;Pac;DaySum;Status;Pdc1;Pdc2;Udc1;Udc2;Temp;WR;Pac;DaySum;Status;Pdc1;Pdc2;Udc1;Udc2;Temp;WR;Pac;DaySum;Status;Pdc1;Udc;Temp;WR;Pac;DaySum;Status;Pdc1;Udc;Temp;WR;Pac;DaySum;Status;Pdc1;Udc;Temp
03.02.20;23:55:00;1;233;19745;0;2;0;1379;0;0;0;0;3;0;787;0;0;0;0;4;0;1097;0;0;0;0;5;0;3203;0;0;0;0;0;0;6;0;2133;0;0;0;0;0;0;7;0;1293;0;0;0;0;8;0;1311;0;0;0;0;9;0;653;0;0;0;0
03.02.20;23:50:00;1;237;19726;0;2;0;1379;0;0;0;0;3;0;787;0;0;0;0;4;0;1097;0;0;0;0;5;0;3203;0;0;0;0;0;0;6;0;2133;0;0;0;0;0;0;7;0;1293;0;0;0;0;8;0;1311;0;0;0;0;9;0;653;0;0;0;0
03.02.20;23:45:00;1;237;19706;0;2;0;1379;0;0;0;0;3;0;787;0;0;0;0;4;0;1097;0;0;0;0;5;0;3203;0;0;0;0;0;0;6;0;2133;0;0;0;0;0;0;7;0;1293;0;0;0;0;8;0;1311;0;0;0;0;9;0;653;0;0;0;0
03.02.20;23:40:00;1;238;19686;0;2;0;1379;0;0;0;0;3;0;787;0;0;0;0;4;0;1097;0;0;0;0;5;0;3203;0;0;0;0;0;0;6;0;2133;0;0;0;0;0;0;7;0;1293;0;0;0;0;8;0;1311;0;0;0;0;9;0;653;0;0;0;0
03.02.20;23:35:00;1;279;19666;0;2;0;1379;0;0;0;0;3;0;787;0;0;0;0;4;0;1097;0;0;0;0;5;0;3203;0;0;0;0;0;0;6;0;2133;0;0;0;0;0;0;7;0;1293;0;0;0;0;8;0;1311;0;0;0;0;9;0;653;0;0;0;0
03.02.20;23:30:00;1;253;19642;0;2;0;1379;0;0;0;0;3;0;787;0;0;0;0;4;0;1097;0;0;0;0;5;0;3203;0;0;0;0;0;0;6;0;2133;0;0;0;0;0;0;7;0;1293;0;0;0;0;8;0;1311;0;0;0;0;9;0;653;0;0;0;0
03.02.20;23:25:00;1;297;19620;0;2;0;1379;0;0;0;0;3;0;787;0;0;0;0;4;0;1097;0;0;0;0;5;0;3203;0;0;0;0;0;0;6;0;2133;0;0;0;0;0;0;7;0;1293;0;0;0;0;8;0;1311;0;0;0;0;9;0;653;0;0;0;0
03.02.20;23:20:00;1;337;19594;0;2;0;1379;0;0;0;0;3;0;787;0;0;0;0;4;0;1097;0;0;0;0;5;0;3203;0;0;0;0;0;0;6;0;2133;0;0;0;0;0;0;7;0;1293;0;0;0;0;8;0;1311;0;0;0;0;9;0;653;0;0;0;0
03.02.20;23:15:00;1;383;19566;0;2;0;1379;0;0;0;0;3;0;787;0;0;0;0;4;0;1097;0;0;0;0;5;0;3203;0;0;0;0;0;0;6;0;2133;0;0;0;0;0;0;7;0;1293;0;0;0;0;8;0;1311;0;0;0;0;9;0;653;0;0;0;0
03.02.20;23:10:00;1;375;19534;0;2;0;1379;0;0;0;0;3;0;787;0;0;0;0;4;0;1097;0;0;0;0;5;0;3203;0;0;0;0;0;0;6;0;2133;0;0;0;0;0;0;7;0;1293;0;0;0;0;8;0;1311;0;0;0;0;9;0;653;0;0;0;0
03.02.20;23:05:00;1;448;19503;0;2;0;1379;0;0;0;0;3;0;787;0;0;0;0;4;0;1097;0;0;0;0;5;0;3203;0;0;0;0;0;0;6;0;2133;0;0;0;0;0;0;7;0;1293;0;0;0;0;8;0;1311;0;0;0;0;9;0;653;0;0;0;0
03.02.20;23:00:00;1;466;19465;0;2;0;1379;0;0;0;0;3;0;787;0;0;0;0;4;0;1097;0;0;0;0;5;0;3203;0;0;0;0;0;0;6;0;2133;0;0;0;0;0;0;7;0;1293;0;0;0;0;8;0;1311;0;0;0;0;9;0;653;0;0;0;0
03.02.20;22:55:00;1;563;19426;0;2;0;1379;0;0;0;0;3;0;787;0;0;0;0;4;0;1097;0;0;0;0;5;0;3203;2;0;0;0;0;0;6;0;2133;2;0;0;0;0;0;7;0;1293;0;0;0;0;8;0;1311;0;0;0;0;9;0;653;0;0;0;0
03.02.20;22:50:00;1;502;19384;0;2;0;1379;0;0;0;0;3;0;787;0;0;0;0;4;0;1097;0;0;0;0;5;0;3203;2;0;0;0;0;0;6;0;2133;2;0;0;0;0;0;7;0;1293;0;0;0;0;8;0;1311;0;0;0;0;9;0;653;0;0;0;0
03.02.20;22:45:00;1;2414;19321;0;2;0;1379;0;0;0;0;3;0;787;0;0;0;0;4;0;1097;0;0;0;0;5;0;3203;2;0;0;0;0;0;6;0;2133;2;0;0;0;0;0;7;0;1293;0;0;0;0;8;0;1311;0;0;0;0;9;0;653;0;0;0;0
03.02.20;22:40:00;1;2351;19119;0;2;0;1379;0;0;0;0;3;0;787;0;0;0;0;4;0;1097;0;0;0;0;5;0;3203;2;0;0;0;0;0;6;0;2133;2;0;0;0;0;0;7;0;1293;0;0;0;0;8;0;1311;0;0;0;0;9;0;653;0;0;0;0
03.02.20;22:35:00;1;2148;18921;0;2;0;1379;0;0;0;0;3;0;787;0;0;0;0;4;0;1097;0;0;0;0;5;0;3203;2;0;0;0;0;0;6;0;2133;2;0;0;0;0;0;7;0;1293;0;0;0;0;8;0;1311;0;0;0;0;9;0;653;0;0;0;0
03.02.20;22:30:00;1;1668;18776;0;2;0;1379;0;0;0;0;3;0;787;0;0;0;0;4;0;1097;0;0;0;0;5;0;3203;2;0;0;0;0;0;6;0;2133;2;0;0;0;0;0;7;0;1293;0;0;0;0;8;0;1311;0;0;0;0;9;0;653;0;0;0;0
03.02.20;22:25:00;1;1018;18633;0;2;0;1379;0;0;0;0;3;0;787;0;0;0;0;4;0;1097;0;0;0;0;5;0;3203;2;0;0;0;0;0;6;0;2133;2;0;0;0;0;0;7;0;1293;0;0;0;0;8;0;1311;0;0;0;0;9;0;653;0;0;0;0
03.02.20;22:20:00;1;552;18580;0;2;0;1379;0;0;0;0;3;0;787;0;0;0;0;4;0;1097;0;0;0;0;5;0;3203;2;0;0;0;0;0;6;0;2133;2;0;0;0;0;0;7;0;1293;0;0;0;0;8;0;1311;0;0;0;0;9;0;653;0;0;0;0
03.02.20;22:15:00;1;745;18536;0;2;0;1379;0;0;0;0;3;0;787;0;0;0;0;4;0;1097;0;0;0;0;5;0;3203;2;0;0;0;0;0;6;0;2133;2;0;0;0;0;0;7;0;1293;0;0;0;0;8;0;1311;0;0;0;0;9;0;653;0;0;0;0
03.02.20;22:10:00;1;2078;18438;0;2;0;1379;0;0;0;0;3;0;787;0;0;0;0;4;0;1097;0;0;0;0;5;0;3203;2;0;0;0;0;0;6;0;2133;2;0;0;0;0;0;7;0;1293;0;0;0;0;8;0;1311;0;0;0;0;9;0;653;0;0;0;0
03.02.20;22:05:00;1;428;18283;0;2;0;1379;0;0;0;0;3;0;787;0;0;0;0;4;0;1097;0;0;0;0;5;0;3203;2;0;0;0;0;0;6;0;2133;2;0;0;0;0;0;7;0;1293;0;0;0;0;8;0;1311;0;0;0;0;9;0;653;0;0;0;0
03.02.20;22:00:00;1;2378;18243;0;2;0;1379;0;0;0;0;3;0;787;0;0;0;0;4;0;1097;0;0;0;0;5;0;3203;2;0;0;0;0;0;6;0;2133;2;0;0;0;0;0;7;0;1293;0;0;0;0;8;0;1311;0;0;0;0;9;0;653;0;0;0;0
03.02.20;21:55:00;1;1330;18044;0;2;0;1379;0;0;0;0;3;0;787;0;0;0;0;4;0;1097;0;0;0;0;5;0;3203;2;0;0;0;0;0;6;0;2133;2;0;0;0;0;0;7;0;1293;0;0;0;0;8;0;1311;0;0;0;0;9;0;653;0;0;0;0
03.02.20;21:50:00;1;1381;17939;0;2;0;1379;0;0;0;0;3;0;787;0;0;0;0;4;0;1097;0;0;0;0;5;0;3203;2;0;0;0;0;0;6;0;2133;2;0;0;0;0;0;7;0;1293;0;0;0;0;8;0;1311;0;0;0;0;9;0;653;0;0;0;0
03.02.20;21:45:00;1;2337;17828;0;2;0;1379;0;0;0;0;3;0;787;0;0;0;0;4;0;1097;0;0;0;0;5;0;3203;2;0;0;0;0;0;6;0;2133;2;0;0;0;0;0;7;0;1293;0;0;0;0;8;0;1311;0;0;0;0;9;0;653;0;0;0;0
03.02.20;21:40:00;1;1778;17612;0;2;0;1379;0;0;0;0;3;0;787;0;0;0;0;4;0;1097;0;0;0;0;5;0;3203;2;0;0;0;0;0;6;0;2133;2;0;0;0;0;0;7;0;1293;0;0;0;0;8;0;1311;0;0;0;0;9;0;653;0;0;0;0
03.02.20;21:35:00;1;615;17467;0;2;0;1379;0;0;0;0;3;0;787;0;0;0;0;4;0;1097;0;0;0;0;5;0;3203;2;0;0;0;0;0;6;0;2133;2;0;0;0;0;0;7;0;1293;0;0;0;0;8;0;1311;0;0;0;0;9;0;653;0;0;0;0
03.02.20;21:30:00;1;635;17415;0;2;0;1379;0;0;0;0;3;0;787;0;0;0;0;4;0;1097;0;0;0;0;5;0;3203;2;0;0;0;0;0;6;0;2133;2;0;0;0;0;0;7;0;1293;0;0;0;0;8;0;1311;0;0;0;0;9;0;653;0;0;0;0
03.02.20;21:25:00;1;654;17363;0;2;0;1379;0;0;0;0;3;0;787;0;0;0;0;4;0;1097;0;0;0;0;5;0;3203;2;0;0;0;0;0;6;0;2133;2;0;0;0;0;0;7;0;1293;0;0;0;0;8;0;1311;0;0;0;0;9;0;653;0;0;0;0
03.02.20;21:20:00;1;729;17308;0;2;0;1379;0;0;0;0;3;0;787;0;0;0;0;4;0;1097;0;0;0;0;5;0;3203;2;0;0;0;0;0;6;0;2133;2;0;0;0;0;0;7;0;1293;0;0;0;0;8;0;1311;0;0;0;0;9;0;653;0;0;0;0
03.02.20;21:15:00;1;738;17247;0;2;0;1379;0;0;0;0;3;0;787;0;0;0;0;4;0;1097;0;0;0;0;5;0;3203;2;0;0;0;0;0;6;0;2133;2;0;0;0;0;0;7;0;1293;0;0;0;0;8;0;1311;0;0;0;0;9;0;653;0;0;0;0
03.02.20;21:10:00;1;744;17185;0;2;0;1379;0;0;0;0;3;0;787;0;0;0;0;4;0;1097;0;0;0;0;5;0;3203;2;0;0;0;0;0;6;0;2133;2;0;0;0;0;0;7;0;1293;0;0;0;0;8;0;1311;0;0;0;0;9;0;653;0;0;0;0
03.02.20;21:05:00;1;801;17122;0;2;0;1379;0;0;0;0;3;0;787;0;0;0;0;4;0;1097;0;0;0;0;5;0;3203;2;0;0;0;0;0;6;0;2133;2;0;0;0;0;0;7;0;1293;0;0;0;0;8;0;1311;0;0;0;0;9;0;653;0;0;0;0
03.02.20;21:00:00;1;704;17058;0;2;0;1379;0;0;0;0;3;0;787;0;0;0;0;4;0;1097;0;0;0;0;5;0;3203;2;0;0;0;0;0;6;0;2133;2;0;0;0;0;0;7;0;1293;0;0;0;0;8;0;1311;0;0;0;0;9;0;653;0;0;0;0
03.02.20;20:55:00;1;711;16999;0;2;0;1379;0;0;0;0;3;0;787;0;0;0;0;4;0;1097;0;0;0;0;5;0;3203;2;0;0;0;0;0;6;0;2133;2;0;0;0;0;0;7;0;1293;0;0;0;0;8;0;1311;0;0;0;0;9;0;653;0;0;0;0
03.02.20;20:50:00;1;704;16939;0;2;0;1379;0;0;0;0;3;0;787;0;0;0;0;4;0;1097;0;0;0;0;5;0;3203;2;0;0;0;0;0;6;0;2133;2;0;0;0;0;0;7;0;1293;0;0;0;0;8;0;1311;0;0;0;0;9;0;653;0;0;0;0
03.02.20;20:45:00;1;671;16880;0;2;0;1379;0;0;0;0;3;0;787;0;0;0;0;4;0;1097;0;0;0;0;5;0;3203;2;0;0;0;0;0;6;0;2133;2;0;0;0;0;0;7;0;1293;0;0;0;0;8;0;1311;0;0;0;0;9;0;653;0;0;0;0
03.02.20;20:40:00;1;631;16824;0;2;0;1379;0;0;0;0;3;0;787;0;0;0;0;4;0;1097;0;0;0;0;5;0;3203;2;0;0;0;0;0;6;0;2133;2;0;0;0;0;0;7;0;1293;0;0;0;0;8;0;1311;0;0;0;0;9;0;653;0;0;0;0
03.02.20;20:35:00;1;634;16771;0;2;0;1379;0;0;0;0;3;0;787;0;0;0;0;4;0;1097;0;0;0;0;5;0;3203;2;0;0;0;0;0;6;0;2133;2;0;0;0;0;0;7;0;1293;0;0;0;0;8;0;1311;0;0;0;0;9;0;653;0;0;0;0
03.02.20;20:30:00;1;659;16719;0;2;0;1379;0;0;0;0;3;0;787;0;0;0;0;4;0;1097;0;0;0;0;5;0;3203;2;0;0;0;0;0;6;0;2133;2;0;0;0;0;0;7;0;1293;0;0;0;0;8;0;1311;0;0;0;0;9;0;653;0;0;0;0
03.02.20;20:25:00;1;686;16662;0;2;0;1379;0;0;0;0;3;0;787;0;0;0;0;4;0;1097;0;0;0;0;5;0;3203;2;0;0;0;0;0;6;0;2133;2;0;0;0;0;0;7;0;1293;0;0;0;0;8;0;1311;0;0;0;0;9;0;653;0;0;0;0
03.02.20;20:20:00;1;607;16612;0;2;0;1379;0;0;0;0;3;0;787;0;0;0;0;4;0;1097;0;0;0;0;5;0;3203;2;0;0;0;0;0;6;0;2133;2;0;0;0;0;0;7;0;1293;0;0;0;0;8;0;1311;0;0;0;0;9;0;653;0;0;0;0
03.02.20;20:15:00;1;579;16560;0;2;0;1379;0;0;0;0;3;0;787;0;0;0;0;4;0;1097;0;0;0;0;5;0;3203;2;0;0;0;0;0;6;0;2133;2;0;0;0;0;0;7;0;1293;0;0;0;0;8;0;1311;0;0;0;0;9;0;653;0;0;0;0
03.02.20;20:10:00;1;594;16511;0;2;0;1379;0;0;0;0;3;0;787;0;0;0;0;4;0;1097;0;0;0;0;5;0;3203;2;0;0;0;0;0;6;0;2133;2;0;0;0;0;0;7;0;1293;0;0;0;0;8;0;1311;0;0;0;0;9;0;653;0;0;0;0
03.02.20;20:05:00;1;653;16462;0;2;0;1379;0;0;0;0;3;0;787;0;0;0;0;4;0;1097;0;0;0;0;5;0;3203;2;0;0;0;0;0;6;0;2133;2;0;0;0;0;0;7;0;1293;0;0;0;0;8;0;1311;0;0;0;0;9;0;653;0;0;0;0
03.02.20;20:00:00;1;975;16405;0;2;0;1379;0;0;0;0;3;0;787;0;0;0;0;4;0;1097;0;0;0;0;5;0;3203;2;0;0;0;0;0;6;0;2133;2;0;0;0;0;0;7;0;1293;0;0;0;0;8;0;1311;0;0;0;0;9;0;653;0;0;0;0
03.02.20;19:55:00;1;1184;16321;0;2;0;1379;0;0;0;0;3;0;787;0;0;0;0;4;0;1097;0;0;0;0;5;0;3203;2;0;0;0;0;0;6;0;2133;2;0;0;0;0;0;7;0;1293;0;0;0;0;8;0;1311;0;0;0;0;9;0;653;0;0;0;0
03.02.20;19:50:00;1;1245;16221;0;2;0;1379;0;0;0;0;3;0;787;0;0;0;0;4;0;1097;0;0;0;0;5;0;3203;2;0;0;0;0;0;6;0;2133;2;0;0;0;0;0;7;0;1293;0;0;0;0;8;0;1311;0;0;0;0;9;0;653;0;0;0;0
03.02.20;19:45:00;1;1199;16118;0;2;0;1379;0;0;0;0;3;0;787;0;0;0;0;4;0;1097;0;0;0;0;5;0;3203;2;0;0;0;0;0;6;0;2133;2;0;0;0;0;0;7;0;1293;0;0;0;0;8;0;1311;0;0;0;0;9;0;653;0;0;0;0
03.02.20;19:40:00;1;1213;16018;0;2;0;1379;0;0;0;0;3;0;787;0;0;0;0;4;0;1097;0;0;0;0;5;0;3203;2;0;0;0;0;0;6;0;2133;2;0;0;0;0;0;7;0;1293;0;0;0;0;8;0;1311;0;0;0;0;9;0;653;0;0;0;0
03.02.20;19:35:00;1;1235;15917;0;2;0;1379;0;0;0;0;3;0;787;0;0;0;0;4;0;1097;0;0;0;0;5;0;3203;2;0;0;0;0;0;6;0;2133;2;0;0;0;0;0;7;0;1293;0;0;0;0;8;0;1311;0;0;0;0;9;0;653;0;0;0;0
03.02.20;19:30:00;1;1260;15813;0;2;0;1379;0;0;0;0;3;0;787;0;0;0;0;4;0;1097;0;0;0;0;5;0;3203;2;0;0;0;0;0;6;0;2133;2;0;0;0;0;0;7;0;1293;0;0;0;0;8;0;1311;0;0;0;0;9;0;653;0;0;0;0
03.02.20;19:25:00;1;1246;15708;0;2;0;1379;0;0;0;0;3;0;787;0;0;0;0;4;0;1097;0;0;0;0;5;0;3203;2;0;0;0;0;0;6;0;2133;2;0;0;0;0;0;7;0;1293;0;0;0;0;8;0;1311;0;0;0;0;9;0;653;0;0;0;0
03.02.20;19:20:00;1;1271;15604;0;2;0;1379;0;0;0;0;3;0;787;0;0;0;0;4;0;1097;0;0;0;0;5;0;3203;2;0;0;0;0;0;6;0;2133;2;0;0;0;0;0;7;0;1293;0;0;0;0;8;0;1311;0;0;0;0;9;0;653;0;0;0;0
03.02.20;19:15:00;1;1345;15497;0;2;0;1379;0;0;0;0;3;0;787;0;0;0;0;4;0;1097;0;0;0;0;5;0;3203;2;0;0;0;0;0;6;0;2133;2;0;0;0;0;0;7;0;1293;0;0;0;0;8;0;1311;0;0;0;0;9;0;653;0;0;0;0
03.02.20;19:10:00;1;1322;15385;0;2;0;1379;0;0;0;0;3;0;787;0;0;0;0;4;0;1097;0;0;0;0;5;0;3203;2;0;0;0;0;0;6;0;2133;2;0;0;0;0;0;7;0;1293;0;0;0;0;8;0;1311;0;0;0;0;9;0;653;0;0;0;0
03.02.20;19:05:00;1;1293;15275;0;2;0;1379;0;0;0;0;3;0;787;0;0;0;0;4;0;1097;0;0;0;0;5;0;3203;2;0;0;0;0;0;6;0;2133;2;0;0;0;0;0;7;0;1293;0;0;0;0;8;0;1311;0;0;0;0;9;0;653;0;0;0;0
03.02.20;19:00:00;1;1274;15167;0;2;0;1379;0;0;0;0;3;0;787;0;0;0;0;4;0;1097;0;0;0;0;5;0;3203;2;0;0;0;0;0;6;0;2133;2;0;0;0;0;0;7;0;1293;0;0;0;0;8;0;1311;0;0;0;0;9;0;653;0;0;0;0
03.02.20;18:55:00;1;1182;15064;0;2;0;1379;0;0;0;0;3;0;787;0;0;0;0;4;0;1097;0;0;0;0;5;0;3203;2;0;0;0;0;0;6;0;2133;2;0;0;0;0;0;7;0;1293;0;0;0;0;8;0;1311;0;0;0;0;9;0;653;0;0;0;0
03.02.20;18:50:00;1;1129;14966;0;2;0;1379;0;0;0;0;3;0;787;0;0;0;0;4;0;1097;0;0;0;0;5;0;3203;2;0;0;0;0;0;6;0;2133;2;0;0;0;0;0;7;0;1293;0;0;0;0;8;0;1311;0;0;0;0;9;0;653;0;0;0;0
03.02.20;18:45:00;1;1103;14871;0;2;0;1379;0;0;0;0;3;0;787;0;0;0;0;4;0;1097;0;0;0;0;5;0;3203;2;0;0;0;0;0;6;0;2133;2;0;0;0;0;0;7;0;1293;0;0;0;0;8;0;1311;0;0;0;0;9;0;653;0;0;0;0
03.02.20;18:40:00;1;1123;14779;0;2;0;1379;0;0;0;0;3;0;787;0;0;0;0;4;0;1097;0;0;0;0;5;0;3203;2;0;0;0;0;0;6;0;2133;2;0;0;0;0;0;7;0;1293;0;0;0;0;8;0;1311;0;0;0;0;9;0;653;0;0;0;0
03.02.20;18:35:00;1;1179;14685;0;2;0;1379;0;0;0;0;3;0;787;0;0;0;0;4;0;1097;0;0;0;0;5;0;3203;2;0;0;0;0;0;6;0;2133;2;0;0;0;0;0;7;0;1293;0;0;0;0;8;0;1311;0;0;0;0;9;0;653;0;0;0;0
03.02.20;18:30:00;1;1111;14587;0;2;0;1379;0;0;0;0;3;0;787;0;0;0;0;4;0;1097;0;0;0;0;5;0;3203;2;0;0;0;0;0;6;0;2133;2;0;0;0;0;0;7;0;1293;0;0;0;0;8;0;1311;0;0;0;0;9;0;653;0;0;0;0
03.02.20;18:25:00;1;1110;14494;0;2;0;1379;0;0;0;0;3;0;787;0;0;0;0;4;0;1097;0;0;0;0;5;0;3203;2;0;0;0;0;0;6;0;2133;2;0;0;0;0;0;7;0;1293;0;0;0;0;8;0;1311;0;0;0;0;9;0;653;0;0;0;0
03.02.20;18:20:00;1;1146;14401;0;2;0;1379;0;0;0;0;3;0;787;0;0;0;0;4;0;1097;0;0;0;0;5;0;3203;2;0;0;0;0;0;6;0;2133;2;0;0;0;0;0;7;0;1293;0;0;0;0;8;0;1311;0;0;0;0;9;0;653;0;0;0;0
03.02.20;18:15:00;1;1154;14306;0;2;0;1379;0;0;0;0;3;0;787;0;0;0;0;4;0;1097;0;0;0;0;5;0;3203;2;0;0;0;0;0;6;0;2133;2;0;0;0;0;0;7;0;1293;0;0;0;0;8;0;1311;0;0;0;0;9;0;653;0;0;0;0
03.02.20;18:10:00;1;1167;14210;0;2;0;1379;0;0;0;0;3;0;787;0;0;0;0;4;0;1097;0;0;0;0;5;0;3203;2;0;0;0;0;0;6;0;2133;2;0;0;0;0;0;7;0;1293;0;0;0;0;8;0;1311;0;0;0;0;9;0;653;0;0;0;0
03.02.20;18:05:00;1;1185;14112;0;2;0;1379;0;0;0;0;3;0;787;0;0;0;0;4;0;1097;0;0;0;0;5;0;3203;2;0;0;0;0;0;6;0;2133;2;0;0;0;0;0;7;0;1293;0;0;0;0;8;0;1311;0;0;0;0;9;0;653;0;0;0;0
03.02.20;18:00:00;1;1359;14012;0;2;0;1379;0;0;0;0;3;0;787;0;0;0;0;4;0;1097;0;0;0;0;5;0;3203;2;0;0;0;0;0;6;0;2133;2;0;0;0;0;0;7;0;1293;0;0;0;0;8;0;1311;0;0;0;0;9;0;653;0;0;0;0
03.02.20;17:55:00;1;1165;13898;0;2;0;1379;0;0;0;0;3;0;787;0;0;0;0;4;0;1097;0;0;0;0;5;0;3203;2;0;0;0;0;0;6;0;2133;2;0;0;0;0;0;7;0;1293;0;0;0;0;8;0;1311;0;0;0;0;9;0;653;0;0;0;0
03.02.20;17:50:00;1;1135;13802;0;2;0;1379;0;0;0;0;3;0;787;0;0;0;0;4;0;1097;0;0;0;0;5;0;3203;2;0;0;0;0;0;6;0;2133;2;0;0;0;0;0;7;0;1293;0;0;0;0;8;0;1311;0;0;0;0;9;0;653;0;0;0;0
03.02.20;17:45:00;1;1138;13707;0;2;0;1379;0;0;0;0;3;0;787;0;0;0;0;4;0;1097;0;0;0;0;5;0;3203;2;0;0;0;0;0;6;0;2133;2;0;0;0;0;0;7;0;1293;0;0;0;0;8;0;1311;0;0;0;0;9;0;653;0;0;0;0
03.02.20;17:40:00;1;1165;13612;0;2;0;1379;0;0;0;0;3;0;787;0;0;0;0;4;0;1097;0;0;0;0;5;0;3203;2;0;0;0;0;0;6;0;2133;2;0;0;0;0;0;7;0;1293;0;0;0;0;8;0;1311;0;0;0;0;9;0;653;0;0;0;0
03.02.20;17:35:00;1;1253;13514;0;2;0;1379;0;0;0;0;3;0;787;0;0;0;0;4;0;1097;0;0;0;0;5;0;3203;2;0;0;0;0;0;6;0;2133;2;0;0;0;0;0;7;0;1293;0;0;0;0;8;0;1311;0;0;0;0;9;0;653;0;0;0;0
03.02.20;17:30:00;1;1344;13408;0;2;0;1379;0;0;0;0;3;0;787;0;0;0;0;4;0;1097;0;0;0;0;5;0;3203;2;0;0;0;0;0;6;0;2133;2;0;0;0;0;0;7;0;1293;0;0;0;0;8;0;1311;0;0;0;0;9;0;653;0;0;0;0
03.02.20;17:25:00;1;921;13297;0;2;0;1379;0;0;0;0;3;0;787;0;0;0;0;4;0;1097;0;0;0;0;5;0;3203;2;0;0;0;0;0;6;0;2133;2;0;0;0;0;0;7;0;1293;0;0;0;0;8;0;1311;0;0;0;0;9;0;653;0;0;0;0
03.02.20;17:20:00;1;937;13222;0;2;0;1379;0;0;0;0;3;0;787;0;0;0;0;4;0;1097;0;0;0;0;5;0;3203;2;0;0;0;0;0;6;0;2133;2;0;0;0;0;0;7;0;1293;0;0;0;0;8;0;1311;0;0;0;0;9;0;653;0;0;0;0
03.02.20;17:15:00;1;880;13143;0;2;0;1379;0;0;128;6;3;0;787;0;0;236;12;4;0;1097;0;0;0;0;5;0;3203;2;0;0;0;0;0;6;0;2133;2;0;0;0;0;0;7;0;1293;0;0;0;0;8;0;1311;0;0;0;0;9;0;653;0;0;0;0
03.02.20;17:10:00;1;871;13069;0;2;0;1379;6;0;278;12;3;0;787;6;0;311;15;4;0;1097;0;0;63;10;5;0;3203;2;0;0;0;0;0;6;0;2133;1;0;0;0;0;0;7;0;1293;0;0;0;0;8;0;1311;0;0;0;0;9;0;653;0;0;0;0
03.02.20;17:05:00;1;871;12996;0;2;0;1379;6;0;313;12;3;0;787;6;0;375;15;4;0;1097;1;0;107;12;5;0;3203;1;0;1;244;242;18;6;0;2133;1;0;0;0;0;7;7;0;1293;0;0;0;0;8;0;1311;0;0;0;0;9;0;653;0;0;41;2
03.02.20;17:00:00;1;817;12924;0;2;0;1379;6;0;330;12;3;0;787;6;0;403;15;4;0;1097;1;0;126;12;5;0;3203;1;0;0;331;333;22;6;0;2133;1;5;1;144;327;20;7;0;1293;0;0;102;6;8;0;1311;0;0;152;9;9;0;653;6;0;272;12
03.02.20;16:55:00;1;754;12856;0;2;0;1379;6;0;344;12;3;0;787;6;1;410;15;4;0;1097;1;0;144;12;5;0;3203;23;0;1;375;373;23;6;0;2133;23;6;2;181;490;21;7;0;1293;6;0;164;9;8;0;1311;6;0;280;16;9;0;653;6;0;240;9
03.02.20;16:50:00;1;735;12793;0;2;0;1379;6;0;360;12;3;0;787;6;1;433;16;4;0;1097;1;0;168;12;5;0;3203;26;0;3;393;423;23;6;0;2133;23;9;4;243;466;22;7;0;1293;6;0;316;16;8;0;1311;6;0;322;16;9;0;653;6;0;279;10
03.02.20;16:45:00;1;744;12732;0;2;0;1379;6;0;372;12;3;0;787;4;2;447;16;4;0;1097;1;0;187;13;5;0;3203;23;0;1;406;557;23;6;0;2133;23;5;5;566;180;22;7;0;1293;6;0;353;17;8;0;1311;6;0;359;16;9;0;653;0;0;310;9
03.02.20;16:40:00;1;828;12670;0;2;0;1379;6;0;381;12;3;1;787;6;4;440;16;4;0;1097;1;0;204;13;5;6;3203;1;0;2;409;642;23;6;0;2133;23;7;3;197;559;23;7;0;1293;6;0;390;17;8;0;1311;6;0;397;16;9;0;653;4;0;410;12
03.02.20;16:35:00;1;762;12600;0;2;0;1379;6;0;400;13;3;3;787;6;10;452;16;4;0;1097;1;0;209;13;5;26;3203;1;6;9;404;647;24;6;0;2133;23;6;2;441;578;23;7;0;1293;6;1;421;17;8;0;1311;6;2;425;16;9;0;653;3;0;452;12
03.02.20;16:30:00;1;740;12537;0;2;0;1379;6;0;402;13;3;1;786;6;3;488;16;4;0;1097;3;0;207;14;5;53;3201;1;13;13;390;621;24;6;38;2133;1;18;20;477;451;24;7;0;1293;6;1;432;17;8;0;1311;6;1;436;17;9;0;653;6;0;475;12
03.02.20;16:25:00;1;740;12475;0;2;4;1379;6;8;406;13;3;2;786;6;6;505;16;4;1;1097;3;1;199;14;5;118;3195;4;45;42;371;590;25;6;72;2130;4;28;29;453;425;25;7;1;1293;4;3;458;17;8;0;1311;4;3;460;17;9;0;653;6;4;506;12
03.02.20;16:20:00;1;746;12413;0;2;6;1379;6;10;408;13;3;0;786;6;0;536;16;4;5;1097;3;6;199;14;5;127;3185;4;49;45;371;590;25;6;79;2124;4;43;43;453;425;25;7;2;1293;3;5;452;17;8;7;1311;3;11;423;17;9;0;653;6;3;507;12
03.02.20;16:15:00;1;791;12351;0;2;7;1379;6;12;413;13;3;2;786;4;7;513;16;4;25;1096;3;25;199;14;5;143;3175;4;58;59;370;590;25;6;90;2117;4;46;46;453;425;25;7;3;1293;6;8;469;17;8;6;1311;6;8;470;17;9;0;653;6;4;520;12
03.02.20;16:10:00;1;802;12285;0;2;4;1378;6;8;410;13;3;4;786;3;13;491;16;4;9;1094;3;10;199;14;5;126;3163;4;49;48;371;590;25;6;75;2110;4;29;30;453;425;25;7;1;1293;6;4;468;18;8;0;1310;6;4;388;14;9;2;653;6;3;511;12
03.02.20;16:05:00;1;847;12218;0;2;7;1378;4;11;407;14;3;4;786;6;14;476;16;4;2;1094;3;2;199;14;5;130;3152;4;52;51;371;590;25;6;80;2103;4;39;42;453;424;25;7;3;1293;6;7;465;18;8;1;1310;6;8;467;17;9;0;653;3;4;405;10
03.02.20;16:00:00;1;862;12139;0;2;7;1377;6;10;413;14;3;3;785;6;8;519;16;4;8;1093;3;8;199;14;5;145;3142;4;56;55;371;590;25;6;88;2097;4;40;42;453;425;25;7;0;1293;6;6;477;18;8;1;1310;6;6;478;17;9;1;652;6;4;525;13
03.02.20;15:55:00;1;833;12071;0;2;7;1376;6;12;414;14;3;4;785;6;9;517;17;4;16;1093;3;16;199;14;5;152;3130;4;63;60;370;590;25;6;99;2089;4;58;57;453;425;25;7;4;1292;4;8;471;18;8;5;1310;4;8;472;18;9;2;652;6;6;413;10
03.02.20;15:50:00;1;1067;11977;0;2;34;1376;6;47;389;14;3;0;785;6;0;548;17;4;9;1091;3;10;198;14;5;164;3117;4;69;65;370;590;25;6;100;2081;4;45;48;453;425;25;7;10;1292;3;21;446;18;8;14;1309;3;21;448;18;9;0;652;0;0;223;5
03.02.20;15:45:00;1;1030;11881;0;2;73;1374;4;98;371;15;3;6;785;6;12;524;17;4;38;1091;3;39;198;14;5;207;3103;4;99;85;371;590;25;6;131;2072;4;77;81;452;425;24;7;49;1291;4;80;371;18;8;40;1307;0;66;323;14;9;5;652;6;9;537;13
03.02.20;15:40:00;1;982;11777;0;2;105;1367;4;129;360;15;3;22;784;3;36;523;17;4;58;1088;3;60;198;14;5;256;3085;4;115;110;370;590;25;6;161;2061;4;72;73;453;425;24;7;79;1287;4;110;415;18;8;59;1304;4;85;342;14;9;0;652;6;0;345;7
03.02.20;15:35:00;1;995;11683;0;2;119;1359;4;145;377;15;3;64;782;4;101;486;17;4;76;1083;3;78;199;14;5;286;3064;4;139;121;371;590;25;6;182;2047;4;99;95;453;425;24;7;64;1280;4;78;268;10;8;99;1298;4;131;421;18;9;10;652;4;13;552;13
03.02.20;15:30:00;1;1430;11582;0;2;137;1349;4;164;373;15;3;73;776;4;112;503;17;4;91;1076;5;95;210;14;5;314;3039;4;154;130;371;590;25;6;203;2032;4;105;101;453;425;24;7;106;1272;4;136;480;18;8;114;1289;4;151;454;18;9;10;651;6;14;563;13
03.02.20;15:25:00;1;1930;11438;0;2;136;1337;4;163;368;15;3;72;770;4;109;496;17;4;94;1069;3;98;210;14;5;315;3013;4;158;134;371;590;25;6;204;2015;4;104;102;453;425;24;7;99;1263;4;141;461;18;8;50;1275;0;63;175;7;9;12;650;6;17;557;13
03.02.20;15:20:00;1;898;11283;0;2;142;1326;4;170;373;15;3;78;764;4;116;490;17;4;100;1061;3;103;214;14;5;336;2987;4;169;142;371;590;25;6;214;1998;4;101;101;453;425;24;7;113;1254;4;146;444;18;8;114;1270;4;149;469;18;9;41;649;6;53;494;14
03.02.20;15:15:00;1;813;11216;0;2;143;1314;4;170;376;15;3;81;758;4;116;475;17;4;101;1053;3;105;219;14;5;329;2959;4;165;140;371;590;25;6;208;1980;4;100;97;453;425;24;7;79;1244;4;112;371;14;8;76;1261;4;108;379;14;9;12;646;6;17;439;11
03.02.20;15:10:00;1;887;11148;0;2;117;1302;4;143;372;15;3;15;751;4;20;550;17;4;79;1044;5;82;202;14;5;278;2931;4;133;120;371;590;25;6;180;1962;4;90;90;453;425;24;7;88;1236;4;124;465;18;8;102;1253;4;130;443;18;9;22;645;4;31;535;14
03.02.20;15:05:00;1;834;11076;0;2;101;1292;4;127;368;15;3;11;749;4;18;542;17;4;61;1037;3;64;198;14;5;253;2909;4;119;108;371;590;25;6;163;1947;4;75;76;453;425;24;7;66;1229;4;102;455;18;8;70;1244;4;107;432;18;9;8;642;4;11;544;14
03.02.20;15:00:00;1;1010;10999;0;2;128;1284;4;156;373;15;3;75;748;4;110;464;18;4;86;1032;3;90;208;14;5;304;2887;4;149;132;371;590;25;6;194;1933;4;107;106;453;425;24;7;103;1223;4;131;400;18;8;101;1238;4;130;411;18;9;17;642;3;25;539;14
03.02.20;14:55:00;1;1328;10904;0;2;172;1273;4;200;378;15;3;100;742;4;139;481;18;4;131;1025;5;136;225;14;5;380;2861;4;194;162;396;590;25;6;238;1917;4;131;131;453;425;24;7;149;1215;4;181;411;18;8;153;1230;4;185;410;18;9;83;640;4;105;472;14
03.02.20;14:50:00;1;1419;10783;0;2;199;1259;4;227;374;15;3;110;734;4;150;514;18;4;150;1014;5;156;226;14;5;426;2829;4;212;180;396;590;25;6;268;1897;4;173;169;453;425;24;7;181;1202;4;220;445;18;8;160;1217;4;184;372;15;9;99;633;4;125;493;14
03.02.20;14:45:00;1;1153;10666;0;2;203;1242;4;232;379;15;3;120;724;4;158;505;18;4;158;1001;5;165;233;14;5;437;2793;4;215;185;402;590;25;6;275;1874;4;149;143;453;425;24;7;196;1187;4;223;468;18;8;198;1201;4;232;454;18;9;87;625;4;106;393;11
03.02.20;14:40:00;1;1115;10574;0;2;185;1226;4;214;380;15;3;107;714;4;144;484;18;4;143;988;5;149;225;14;5;410;2758;4;205;178;392;594;25;6;281;1852;4;135;137;487;478;24;7;162;1171;4;198;442;18;8;160;1185;4;199;454;18;9;89;616;4;114;476;14
03.02.20;14:35:00;1;1313;10474;0;2;240;1210;4;269;381;16;3;144;706;4;181;483;18;4;187;977;5;194;228;14;5;516;2723;4;260;220;403;615;25;6;387;1828;4;194;201;574;552;24;7;139;1152;0;163;261;10;8;221;1171;4;255;442;18;9;26;602;0;31;104;3
03.02.20;14:30:00;1;1029;10362;0;2;310;1190;4;341;393;16;3;189;694;4;228;494;18;4;259;961;5;269;235;14;5;653;2680;4;327;279;412;648;25;6;485;1795;4;238;245;585;558;24;7;317;1140;4;353;468;18;8;319;1153;4;354;475;18;9;53;597;0;63;173;5
03.02.20;14:25:00;1;687;10283;0;2;298;1165;4;330;384;16;3;182;678;4;222;502;18;4;250;940;5;261;231;14;5;616;2626;4;303;267;391;631;25;6;470;1755;4;227;230;587;554;24;7;339;1114;4;365;477;18;8;338;1127;4;375;469;18;9;146;583;0;167;409;12
03.02.20;14:20:00;1;907;10224;0;2;306;1140;4;337;389;16;3;184;663;4;224;511;18;4;254;919;5;264;233;14;5;654;2574;4;329;276;410;646;25;6;480;1716;4;232;233;571;564;24;7;240;1086;4;275;395;15;8;306;1099;4;343;471;18;9;166;572;4;194;511;14
03.02.20;14:15:00;1;702;10162;0;2;359;1115;4;394;398;16;3;221;648;4;260;506;18;4;307;898;5;320;237;14;5;772;2520;4;397;326;419;666;25;6;569;1675;4;293;297;573;567;24;7;375;1062;4;410;479;18;8;383;1073;4;419;469;18;9;205;558;4;235;523;14
03.02.20;14:10:00;1;994;10101;0;2;302;1085;4;334;394;16;3;184;629;4;223;496;18;4;251;872;5;262;235;14;5;659;2457;4;323;280;410;649;25;6;485;1628;4;251;256;565;564;24;7;284;1030;4;331;479;18;8;300;1042;4;338;470;18;9;164;541;4;190;512;14
03.02.20;14:05:00;1;948;10020;0;2;262;1059;4;290;374;16;3;159;614;4;198;502;18;4;217;851;5;226;229;14;5;558;2402;4;290;239;396;617;25;6;423;1588;4;207;219;570;553;24;7;261;1007;4;301;463;18;8;262;1016;4;302;474;18;9;145;527;4;171;520;14
03.02.20;14:00:00;1;1002;9930;0;2;251;1038;4;281;382;16;3;152;601;4;190;489;18;4;207;833;5;215;228;14;5;550;2357;4;279;235;403;627;25;6;403;1553;4;209;215;573;559;24;7;245;985;4;282;458;18;8;245;995;4;281;463;18;9;131;515;4;159;511;14
03.02.20;13:55:00;1;754;9841;0;2;292;1017;4;325;387;16;3;176;588;4;214;486;18;4;242;816;5;252;230;14;5;625;2311;4;313;267;412;647;25;6;461;1519;4;233;243;566;557;24;7;287;965;4;328;468;18;8;292;974;4;326;458;18;9;156;504;4;185;505;14
03.02.20;13:50:00;1;958;9778;0;2;345;992;4;380;398;16;3;213;573;4;252;506;18;4;292;796;5;304;238;14;5;730;2257;4;371;309;414;685;25;6;549;1479;4;277;282;577;564;24;7;346;941;4;380;472;18;8;339;950;4;374;483;18;9;186;491;4;214;508;14
03.02.20;13:45:00;1;1792;9703;0;2;344;964;4;378;399;16;3;210;555;4;253;497;18;4;294;771;5;306;238;14;5;730;2196;4;371;312;416;637;25;6;548;1433;4;274;281;581;562;24;7;345;912;4;385;474;18;8;346;922;4;391;478;18;9;96;475;4;133;306;8